Location: Audrecelles
(50.8240°N, 1.5923°E)
Time: 02:16:46
(UTC+00:00)

Cosmos 44 - Pass Details

Date: 15 October 2025
Orbit: 576 x 774 km, 65.1° (Epoch: 13 November)

Event Time Altitude Azimuth Distance (km) Brightness Sun altitude
Exits shadow 04:18:14 - 328° (NNW) 2,326 5.8 -19.4°
Reaches altitude 10° 04:18:43 10° 331° (NNW) 2,166 5.6 -19.4°
Maximum altitude 04:23:02 29° 31° (NNE) 1,318 5.1 -18.7°
Drops below altitude 10° 04:27:31 10° 91° (E) 2,262 7.2 -18.0°
Sets 04:30:15 0° 103° (ESE) 3,208 8.0 -17.6°
